FW4185 Weather Reports


time (UTC)temp
C
wind
direction
speed
KPH
gust
KPH
rain 1hr
cm
rain 24hr
cm
rain mn
cm
humidity
%
barometer
mb
20260504014712 -17 354 24.1 20.9 0.00 0.00 0.00
20260504013922 12 357 20.9 35.4 0.00 0.00 0.00 47 1008.7
20260504013242 11 354 19.3 35.4 0.00 0.00 0.00 49 1008.8
20260504012603 -17 355 19.3 24.1 0.00 0.00 0.00
20260504011815 -17 354 22.5 20.9 0.00 0.00 0.00
20260504011025 11 355 17.7 35.4 0.00 0.00 0.00 48 1008.7
20260504010345 12 353 24.1 35.4 0.00 0.00 0.00 44 1008.7
20260504005705 11 355 20.9 35.4 0.00 0.00 0.00 46 1008.7
20260504005026 -17 355 22.5 22.5 0.00 0.00 0.00
20260504004239 11 355 19.3 35.4 0.00 0.00 0.00 49 1008.6
20260504003557 11 356 17.7 33.8 0.00 0.00 0.00 50 1008.6
20260504002917 11 355 16.1 35.4 0.00 0.00 0.00 52 1008.6
20260504002236 10 355 16.1 27.4 0.00 0.00 0.00 53 1008.7
20260504001557 10 357 14.5 32.2 0.00 0.00 0.00 54 1008.7
20260504000917 10 357 16.1 30.6 0.00 0.00 0.00 53 1008.7
20260504000237 -17 358 16.1 22.5 0.00 0.00 0.00
20260503235447 -17 355 14.5 12.9 0.00 0.00 0.00
20260503234656 10 356 14.5 24.1 0.00 0.00 0.00 56 1008.7
20260503234016 10 355 14.5 22.5 0.00 0.00 0.00 57 1008.8
20260503233337 -17 356 9.7 8.0 0.00 0.00 0.00
20260503232547 -17 357 12.9 11.3 0.00 0.00 0.00
20260503231646 9 357 11.3 17.7 0.00 0.00 0.00 64 1008.8
20260503231007 -17 356 12.9 4.8 0.00 0.00 0.00
20260503230219 -17 356 12.9 11.3 0.00 0.00 0.00
20260503225210 9 357 11.3 16.1 0.00 0.00 0.00 63 1009.1
20260503224203 10 357 14.5 24.1 0.00 0.00 0.00 61 1009.1
20260503223522 -17 357 16.1 12.9 0.00 0.00 0.00
20260503222733 -17 358 14.5 12.9 0.00 0.00 0.00
20260503221835 -17 357 14.5 17.7 0.00 0.00 0.00
20260503221042 10 357 14.5 30.6 0.00 0.00 0.00 61 1009.4
20260503220403 -17 356 16.1 16.1 0.00 0.00 0.00
20260503215612 10 356 17.7 33.8 0.00 0.00 0.00 59 1009.3
20260503214933 10 357 19.3 32.2 0.00 0.00 0.00 60 1009.2
20260503214252 10 357 14.5 32.2 0.00 0.00 0.00 61 1009.1
20260503213614 -17 355 16.1 11.3 0.00 0.00 0.00
20260503212825 -17 356 20.9 29.0 0.00 0.00 0.00
20260503212034 10 356 19.3 38.6 0.00 0.00 0.00 57 1008.9
20260503211354 10 356 20.9 35.4 0.00 0.00 0.00 57 1008.8
20260503210715 10 355 22.5 35.4 0.00 0.00 0.00 56 1008.9
20260503210035 -17 356 20.9 27.4 0.00 0.00 0.00
20260503205130 10 354 19.3 41.8 0.00 0.00 0.00 54 1009.0
20260503204450 10 355 25.7 24.1 0.00 0.00 0.00 55 1009.0
20260503203658 10 356 24.1 38.6 0.00 0.00 0.00 55 1009.0
20260503203019 10 354 22.5 38.6 0.00 0.00 0.00 54 1009.1
20260503202340 -17 357 20.9 24.1 0.00 0.00 0.00
20260503201438 10 356 17.7 35.4 0.00 0.00 0.00 56 1009.4
20260503200758 10 356 19.3 37.0 0.00 0.00 0.00 53 1009.4
20260503200122 10 355 19.3 37.0 0.00 0.00 0.00 53 1009.5
20260503195440 -17 358 19.3 24.1 0.00 0.00 0.00
20260503194527 10 356 17.7 29.0 0.00 0.00 0.00 52 1009.9
20260503193847 11 357 17.7 32.2 0.00 0.00 0.00 51 1010.0
20260503193207 10 355 17.7 32.2 0.00 0.00 0.00 52 1010.2
20260503192527 10 356 16.1 29.0 0.00 0.00 0.00 53 1010.3
20260503191847 -17 356 24.1 24.1 0.00 0.00 0.00
20260503191055 10 357 16.1 32.2 0.00 0.00 0.00 54 1010.5
20260503190415 10 356 16.1 35.4 0.00 0.00 0.00 52 1010.5
20260503185734 10 356 19.3 35.4 0.00 0.00 0.00 53 1010.6
20260503185055 10 356 17.7 32.2 0.00 0.00 0.00 53 1010.6
20260503184414 10 356 17.7 32.2 0.00 0.00 0.00 51 1010.7
20260503183735 10 356 14.5 30.6 0.00 0.00 0.00 50 1010.7
20260503183055 10 358 16.1 29.0 0.00 0.00 0.00 49 1010.7
20260503182415 10 356 17.7 29.0 0.00 0.00 0.00 47 1010.8
20260503181734 10 356 11.3 19.3 0.00 0.00 0.00 44 1010.9
20260503181055 -17 355 12.9 17.7 0.00 0.00 0.00
20260503180312 11 357 12.9 25.7 0.00 0.00 0.00 41 1011.1
20260503175628 10 355 12.9 24.1 0.00 0.00 0.00 45 1011.3
20260503174948 10 357 11.3 24.1 0.00 0.00 0.00 45 1011.4
20260503174309 10 355 11.3 22.5 0.00 0.00 0.00 44 1011.5
20260503173630 10 357 11.3 6.4 0.00 0.00 0.00 48 1011.6
20260503172841 10 358 11.3 9.7 0.00 0.00 0.00 49 1011.8
20260503172049 10 356 11.3 22.5 0.00 0.00 0.00 47 1011.9
20260503171408 9 355 12.9 22.5 0.00 0.00 0.00 50 1012.1
20260503170729 10 356 12.9 27.4 0.00 0.00 0.00 47 1012.2
20260503150448 7 356 17.7 32.2 0.00 0.00 0.00 67 1013.3
20260503140228 7 356 19.3 32.2 0.00 0.00 0.00 67 1013.3
20260503130908 -17 356 19.3 19.3 0.00 0.00 0.00
20260503130119 -17 357 16.1 20.9 0.00 0.00 0.00
20260503110617 3 357 6.4 12.9 0.00 0.00 0.00 71 1013.3
20260503081256 5 357 8.0 16.1 0.00 0.00 0.00 47 1013.4
20260503080615 5 356 8.0 16.1 0.00 0.00 0.00 45 1013.4
20260503072615 6 356 9.7 17.7 0.00 0.00 0.00 44 1013.3
20260503071936 6 356 12.9 19.3 0.00 0.00 0.00 43 1013.3
20260503071256 6 356 9.7 19.3 0.00 0.00 0.00 41 1013.3
20260503070627 6 357 6.4 17.7 0.00 0.00 0.00 42 1013.3
20260503054505 -17 357 0.0 9.7 0.00 0.00 0.00
20260503053716 3 358 3.2 11.3 0.00 0.00 0.00 70 1013.7
20260503053036 4 356 6.4 12.9 0.00 0.00 0.00 66 1013.7
20260503052358 -17 357 9.7 11.3 0.00 0.00 0.00
20260503051608 -17 357 6.4 8.0 0.00 0.00 0.00
20260503050820 5 357 8.0 16.1 0.00 0.00 0.00 60 1013.9
20260503050139 5 355 9.7 16.1 0.00 0.00 0.00 61 1013.9
20260503045459 5 357 8.0 16.1 0.00 0.00 0.00 61 1014.0
20260503044819 5 358 1.6 11.3 0.00 0.00 0.00 63 1014.0
20260503044140 5 357 9.7 8.0 0.00 0.00 0.00 60 1014.0
20260503043129 5 357 6.4 16.1 0.00 0.00 0.00 62 1014.1
20260503042450 5 356 8.0 11.3 0.00 0.00 0.00 63 1014.2
20260503041216 -17 356 9.7 3.2 0.00 0.00 0.00
20260503040424 -17 358 9.7 9.7 0.00 0.00 0.00
20260503035416 -17 356 6.4 3.2 0.00 0.00 0.00
20260503034625 -17 357 8.0 9.7 0.00 0.00 0.00
20260503033721 5 357 6.4 16.1 0.00 0.00 0.00 61 1014.3
20260503033041 -17 357 8.0 6.4 0.00 0.00 0.00
20260503032255 5 358 1.6 11.3 0.00 0.00 0.00 67 1014.3
20260503031621 -17 355 4.8 14.5 0.00 0.00 0.00
20260503030657 -17 357 8.0 6.4 0.00 0.00 0.00
20260503025909 -17 357 4.8 9.7 0.00 0.00 0.00
20260503025010 -17 356 6.4 12.9 0.00 0.00 0.00
20260503024220 5 356 8.0 6.4 0.00 0.00 0.00 64 1014.5
20260503023432 -17 359 3.2 3.2 0.00 0.00 0.00
20260503022640 5 357 3.2 12.9 0.00 0.00 0.00 62 1014.6
20260503021959 5 358 6.4 12.9 0.00 0.00 0.00 60 1014.6
20260503021320 5 357 8.0 6.4 0.00 0.00 0.00 59 1014.7
20260503020532 -17 356 12.9 11.3 0.00 0.00 0.00
20260503015711 5 356 3.2 12.9 0.00 0.00 0.00 54 1014.7
20260503015029 5 358 4.8 12.9 0.00 0.00 0.00 55 1014.7